Zurück zum Katalog

CZ-4B R/B

AktivSSO
NORAD 32959·ROCKET BODY·🇨🇳 China

Gestartet May 27, 2008 von Taiyuan Satellite Launch Center

Loading…

Nächste Überflüge (nächste 24 Stunden)

TLE

AktuellSource: Space-Track

Epoche: Sep 14, 2026, 05:40 UTC

1 32959U 08026B   26257.23644034  .00000092  00000-0  41104-4 0  9997
2 32959  98.8474 332.2525 0068876   6.6420  52.2736 14.43061923962921

Verfolge CZ-4B R/B in Echtzeit mit AllMySat

Download on the App Store